Flag for Rwanda Weather past 2 weeks in Gitarama, Rwanda

63 °F

Passing clouds.

Feels Like: 63 °F
Forecast: 63 / 81 °F
Wind: No wind

Location: Kigali Airport

Current Time: Oct 7, 2015 at 5:15:43 AM

Latest Report: Oct 7, 2015 at 4:30 AM

Visibility: N/A

Pressure: 30.09 "Hg (24.14 "Hg at 1872m altitude)

Humidity: 68%

Dew point: 52 °F

Location of GitaramaLocation

Historic Weather in Gitarama — Graph


Gitarama temperature yesterday

Maximum temperature yesterday: 88 °F (at 12:30 PM)
Minimum temperature yesterday: 63 °F (at 6:00 AM)
Average temperature yesterday: 76 °F

Past Weeks' High & Low Weather Summary

High90 °F (Sep 29, 3:00 PM)100% (Sep 26, 5:30 AM)30.24 "Hg (Sep 26, 5:30 AM)
Low61 °F (Sep 22, 5:30 AM)29% (Sep 22, 2:00 PM)29.92 "Hg (Sep 30, 3:30 PM)
Average73 °F70%30.10 "Hg
* Reported Sep 22 4:00 AM — Oct 7 4:00 AM, Gitarama, Weather by CustomWeather, © 2015

Note: Actual official high and low records may vary slightly from our data, if they occured in-between our weather recording intervals... More about our weather records


Gitarama weather history for previous 24 hours

Time TempWeatherWind HumidityBarometerVisibility
4:00 AM
Wed, Oct 7
64 °FPassing clouds.No wind60%30.09 "HgN/A
3:30 AM64 °FPassing clouds.No wind60%30.09 "HgN/A
3:00 AM64 °FPassing clouds.No wind56%30.07 "HgN/A
2:30 AM66 °FPassing clouds.No wind56%30.07 "HgN/A
2:00 AM66 °FPassing clouds.No wind52%30.07 "HgN/A
1:30 AM68 °FPassing clouds.5 mph53%30.07 "HgN/A
1:00 AM70 °FPassing clouds.5 mph46%30.09 "HgN/A
12:30 AM70 °FPassing clouds.5 mph46%30.09 "HgN/A
12:00 AM70 °FPassing clouds.5 mph50%30.12 "HgN/A
11:30 PM
Tue, Oct 6
72 °FPassing clouds.6 mph44%30.12 "HgN/A
11:00 PM72 °FPassing clouds.6 mph44%30.12 "HgN/A
10:30 PM73 °FPassing clouds.6 mph41%30.12 "HgN/A
10:00 PM73 °FPassing clouds.6 mph41%30.12 "HgN/A
9:30 PM73 °FPassing clouds.5 mph44%30.12 "HgN/A
9:00 PM73 °FPassing clouds.5 mph44%30.12 "HgN/A
8:30 PM75 °FPassing clouds.6 mph44%30.09 "HgN/A
5:30 PM84 °FScattered clouds.7 mph35%30.07 "HgN/A
5:00 PM86 °FScattered clouds.7 mph33%30.04 "HgN/A
4:30 PM88 °FScattered clouds.6 mph29%30.04 "HgN/A
4:00 PM86 °FScattered clouds.9 mph33%30.04 "HgN/A
3:30 PM88 °FScattered clouds.8 mph33%30.04 "HgN/A
3:00 PM86 °FScattered clouds.7 mph38%30.04 "HgN/A
2:30 PM88 °FScattered clouds.9 mph35%30.04 "HgN/A
2:00 PM88 °FScattered clouds.6 mph35%30.07 "HgN/A
1:30 PM86 °FScattered clouds.7 mph40%30.07 "HgN/A
1:00 PM84 °FScattered clouds.8 mph40%30.09 "HgN/A
12:30 PM88 °FScattered clouds.5 mph35%30.12 "HgN/A
12:00 PM86 °FScattered clouds.9 mph38%30.15 "HgN/A
11:30 AM86 °FScattered clouds.6 mph40%30.15 "HgN/A
11:00 AM77 °FScattered clouds.8 mph51%30.15 "HgN/A
10:30 AM82 °FScattered clouds.8 mph42%30.18 "HgN/A
10:00 AM81 °FScattered clouds.6 mph45%30.18 "HgN/A
9:30 AM81 °FScattered clouds.6 mph45%30.18 "HgN/A
9:00 AM79 °FScattered clouds.7 mph48%30.21 "HgN/A
8:30 AM72 °FScattered clouds.7 mph57%30.21 "HgN/A
8:00 AM73 °FScattered clouds.No wind65%30.21 "HgN/A
7:30 AM70 °FScattered clouds.No wind78%30.18 "HgN/A
6:30 AM64 °FPartly sunny.3 mph88%30.15 "HgN/A
6:00 AM63 °FPartly sunny.No wind94%30.15 "HgN/A
5:30 AM64 °FPassing clouds.No wind88%30.15 "HgN/A
5:00 AM64 °FPassing clouds.No wind88%30.12 "HgN/A
Weather by CustomWeather, © 2015

See weather overviewHow to use our weather pages